Atlanta Dekalb, GA

8:08 AM EDT on July 23, 2017 (GMT -0400)
Dekalb-Peachtree

Weather History for KPDK - December, 2011

Change the Weather History Date:

Wednesday, December 14, 2011

  Actual Average Record
Temperature  
Mean Temperature 55 °F 45 °F  
Max Temperature 68 °F 54 °F 68 °F (2001)
Min Temperature 42 °F 35 °F 15 °F (2010)
Degree Days  
Heating Degree Days 10 21  
Month to date heating degree days 264  
Since 1 July heating degree days 791  
Growing Degree Days 5 (Base 50)    
Moisture  
Dew Point 44 °F    
Average Humidity 70    
Maximum Humidity 93    
Minimum Humidity 43    
Precipitation  
Precipitation 0.00 in 0.15 in 0.72 in (2013)
Month to date precipitation 2.23  
Year to date precipitation 51.04  
Snow  
Snow 0.00 in - - ()
Month to date snowfall  
Since 1 July snowfall  
Snow Depth -    
Sea Level Pressure  
Sea Level Pressure 30.33 in    
Wind  
Wind Speed 1 mph (SSE)    
Max Wind Speed 7 mph    
Max Gust Speed -    
Visibility 9 miles    
Events      
T = Trace of Precipitation, MM = Missing Value Source: NWS Daily Summary

Daily Weather History Graph

Daily Weather History Graph

Search for Another Location

Airport or City:

Trip Planner

Search our weather history database for the weather conditions in past years. The results will help you decide how hot, cold, wet, or windy it might be!

Date:

Astronomy

Dec. 14, 2011 Rise Set
Actual Time 7:34 AM EST 5:29 PM EST
Civil Twilight 7:06 AM EST 5:57 PM EST
Nautical Twilight 6:35 AM EST 6:28 PM EST
Astronomical Twilight 6:04 AM EST 6:58 PM EST
Moon 9:39 PM EST (12/14) 10:25 AM EST (12/14)
Length of Visible Light 10h 50m
Length of Day
9h 55m
Waning Gibbous, 83% of the Moon is Illuminated
Dec 14
Waning Gibbous
Dec 17
Last Quarter
Dec 24
New
Jan 1
First Quarter
Jan 9
Full

Hourly Weather History & Observations

Time (EST) Temp. Dew Point Humidity Pressure Visibility Wind Dir Wind Speed Gust Speed Precip Events Conditions
12:53 AM 45.0 °F 43.0 °F 93% 30.39 in 8.0 mi Calm Calm - N/A   Clear
1:53 AM 45.0 °F 42.1 °F 90% 30.37 in 9.0 mi Calm Calm - N/A   Clear
2:53 AM 44.1 °F 42.1 °F 93% 30.36 in 8.0 mi Calm Calm - N/A   Clear
3:53 AM 43.0 °F 41.0 °F 93% 30.36 in 6.0 mi Calm Calm - N/A   Clear
4:53 AM 42.1 °F 39.9 °F 92% 30.35 in 7.0 mi Calm Calm - N/A   Clear
5:53 AM 42.1 °F 39.9 °F 92% 30.36 in 7.0 mi Calm Calm - N/A   Clear
6:53 AM 42.1 °F 39.0 °F 89% 30.37 in 7.0 mi Calm Calm - N/A   Clear
7:53 AM 42.1 °F 39.0 °F 89% 30.38 in 6.0 mi Calm Calm - N/A   Clear
8:53 AM 48.0 °F 46.0 °F 93% 30.38 in 6.0 mi Calm Calm - N/A   Clear
9:53 AM 55.0 °F 48.0 °F 77% 30.39 in 7.0 mi Calm Calm - N/A   Clear
10:53 AM 60.1 °F 46.9 °F 62% 30.39 in 10.0 mi Calm Calm - N/A   Clear
11:53 AM 64.0 °F 46.0 °F 52% 30.36 in 10.0 mi Calm Calm - N/A   Clear
12:53 PM 66.0 °F 45.0 °F 47% 30.33 in 10.0 mi SSW 5.8 mph - N/A   Clear
1:53 PM 66.9 °F 45.0 °F 45% 30.30 in 10.0 mi Variable 3.5 mph - N/A   Clear
2:53 PM 68.0 °F 45.0 °F 43% 30.28 in 10.0 mi SE 4.6 mph - N/A   Clear
3:53 PM 68.0 °F 45.0 °F 43% 30.27 in 10.0 mi SSW 6.9 mph - N/A   Clear
4:53 PM 66.0 °F 44.1 °F 45% 30.28 in 10.0 mi Calm Calm - N/A   Clear
5:53 PM 61.0 °F 46.0 °F 58% 30.28 in 10.0 mi Calm Calm - N/A   Clear
6:53 PM 60.1 °F 46.0 °F 60% 30.29 in 10.0 mi SE 3.5 mph - N/A   Clear
7:53 PM 59.0 °F 46.0 °F 62% 30.29 in 10.0 mi SSE 4.6 mph - N/A   Clear
8:53 PM 57.9 °F 46.0 °F 65% 30.28 in 10.0 mi SSE 5.8 mph - N/A   Clear
9:53 PM 57.0 °F 45.0 °F 64% 30.27 in 10.0 mi SSE 3.5 mph - N/A   Clear
10:53 PM 55.9 °F 45.0 °F 67% 30.26 in 10.0 mi Calm Calm - N/A   Clear
11:53 PM 55.0 °F 45.0 °F 69% 30.24 in 10.0 mi SSE 5.8 mph - N/A   Clear